Guymon, OK

10:26 AM CST on January 22, 2018 (GMT -0600)
Guymon Municipal

Weather History for KGUY - September, 2013

Change the Weather History Date:

Saturday, September 7, 2013

  Actual Average Record
Temperature  
Mean Temperature 82 °F 74 °F  
Max Temperature 99 °F 88 °F 100 °F (1999)
Min Temperature 65 °F 60 °F 51 °F (2001)
Degree Days  
Heating Degree Days 0 0  
Month to date heating degree days 0 0  
Since 1 July heating degree days 0 1  
Cooling Degree Days 17 9  
Month to date cooling degree days 105 71  
Year to date cooling degree days 1656 1320  
Growing Degree Days 32 (Base 50)    
Moisture  
Dew Point 53 °F    
Average Humidity 44    
Maximum Humidity 67    
Minimum Humidity 20    
Precipitation  
Precipitation 0.00 in 0.06 in 0.20 in (2006)
Month to date precipitation T 0.43  
Year to date precipitation 10.55 15.20  
Snow  
Snow 0.00 in - - ()
Month to date snowfall 0.0  
Since 1 July snowfall 0.0  
Since 1 September snowfall 0.0  
Snow Depth 0.00 in    
Sea Level Pressure  
Sea Level Pressure 29.88 in    
Wind  
Wind Speed 8 mph (SSW)    
Max Wind Speed 17 mph    
Max Gust Speed 28 mph    
Visibility 10 miles    
Events      
T = Trace of Precipitation, MM = Missing Value Source: NWS Daily Summary

Daily Weather History Graph

Daily Weather History Graph

Search for Another Location

Airport or City:

Trip Planner

Search our weather history database for the weather conditions in past years. The results will help you decide how hot, cold, wet, or windy it might be!

Date:

Astronomy

Sep. 07, 2013 Rise Set
Actual Time 7:22 AM CDT 8:05 PM CDT
Civil Twilight 6:55 AM CDT 8:31 PM CDT
Nautical Twilight 6:25 AM CDT 9:02 PM CDT
Astronomical Twilight 5:53 AM CDT 9:33 PM CDT
Moon 9:33 AM CDT (9/7) 9:10 PM CDT (9/7)
Length of Visible Light 13h 35m
Length of Day
12h 42m
Waxing Crescent, 5% of the Moon is Illuminated
Sep 7
Waxing Crescent
Sep 12
First Quarter
Sep 19
Full
Sep 26
Last Quarter
Oct 4
New

Hourly Weather History & Observations

Time (CDT) Temp. Heat Index Dew Point Humidity Pressure Visibility Wind Dir Wind Speed Gust Speed Precip Events Conditions
12:53 AM 73.9 °F - 53.1 °F 48% 29.90 in 10.0 mi South 8.1 mph - N/A   Clear
1:53 AM 73.0 °F - 54.0 °F 51% 29.91 in 10.0 mi SSW 8.1 mph - N/A   Clear
2:53 AM 70.0 °F - 54.0 °F 57% 29.91 in 10.0 mi SSW 4.6 mph - N/A   Clear
3:53 AM 68.0 °F - 54.0 °F 61% 29.91 in 10.0 mi Calm Calm - N/A   Clear
4:53 AM 66.0 °F - 53.1 °F 63% 29.91 in 10.0 mi SSW 3.5 mph - N/A   Clear
5:53 AM 66.0 °F - 53.1 °F 63% 29.91 in 10.0 mi SSW 5.8 mph - N/A   Clear
6:53 AM 64.9 °F - 53.1 °F 65% 29.92 in 10.0 mi SSW 4.6 mph - N/A   Clear
7:53 AM 72.0 °F - 54.0 °F 53% 29.92 in 10.0 mi WSW 5.8 mph - N/A   Clear
8:53 AM 78.1 °F - 55.0 °F 45% 29.92 in 10.0 mi WSW 9.2 mph - N/A   Clear
9:53 AM 86.0 °F 84.5 °F 55.0 °F 35% 29.91 in 10.0 mi West 11.5 mph - N/A   Clear
10:53 AM 90.0 °F 87.9 °F 55.0 °F 30% 29.92 in 10.0 mi West 11.5 mph - N/A   Clear
11:53 AM 93.9 °F 91.7 °F 54.0 °F 26% 29.91 in 10.0 mi SW 6.9 mph - N/A   Clear
12:53 PM 96.1 °F 93.5 °F 53.1 °F 23% 29.91 in 10.0 mi SSE 15.0 mph 27.6 mph N/A   Clear
1:53 PM 97.0 °F - 52.0 °F 22% 29.88 in 10.0 mi South 12.7 mph - N/A   Clear
2:53 PM 97.0 °F - 51.1 °F 21% 29.87 in 10.0 mi South 9.2 mph - N/A   Clear
3:53 PM 99.0 °F - 51.1 °F 20% 29.85 in 10.0 mi South 10.4 mph 20.7 mph N/A   Clear
4:53 PM 98.1 °F - 52.0 °F 21% 29.84 in 10.0 mi South 12.7 mph 17.3 mph N/A   Clear
5:53 PM 97.0 °F - 50.0 °F 20% 29.83 in 10.0 mi SSW 12.7 mph 17.3 mph N/A   Clear
6:53 PM 95.0 °F - 48.9 °F 21% 29.83 in 10.0 mi South 8.1 mph - N/A   Clear
7:53 PM 91.0 °F - 52.0 °F 26% 29.83 in 10.0 mi South 6.9 mph - N/A   Clear
8:53 PM 84.0 °F 82.5 °F 53.1 °F 34% 29.85 in 10.0 mi South 6.9 mph - N/A   Clear
9:53 PM 82.0 °F 81.2 °F 53.1 °F 37% 29.85 in 10.0 mi South 8.1 mph - N/A   Clear
10:53 PM 80.1 °F 79.9 °F 53.1 °F 39% 29.87 in 10.0 mi South 8.1 mph - N/A   Clear
11:53 PM 77.0 °F - 53.1 °F 43% 29.87 in 10.0 mi South 6.9 mph - N/A   Clear